QPF
0.07 0.07 0.06 0.04 0.04 0.03 0.04 0.06 0.08 0.08 0.06 0.04 0.04 0.05 0.04 0.04 0.05 0.04 0.04 0.04 0.03 0.04 0.03 0.03 0.03 0.04 0.05 0.05 0.04 0.05 0.05 0.06 0.08 0.08 0.09 0.11 0.13 0.14
0.06 0.07 0.07 0.05 0.05 0.04 0.04 0.04 0.05 0.05 0.05 0.03 0.03 0.03 0.05 0.05 0.05 0.03 0.04 0.04 0.03 0.03 0.03 0.03 0.02 0.02 0.03 0.04 0.05 0.05 0.06 0.07 0.08 0.09 0.09 0.10 0.10 0.12
0.05 0.05 0.05 0.06 0.06 0.04 0.04 0.04 0.05 0.04 0.06 0.03 0.02 0.02 0.04 0.06 0.05 0.04 0.03 0.03 0.03 0.04 0.04 0.03 0.02 0.02 0.03 0.03 0.04 0.06 0.07 0.08 0.09 0.09 0.09 0.09 0.09 0.08
0.05 0.05 0.04 0.04 0.05 0.05 0.04 0.04 0.03 0.04 0.05 0.05 0.03 0.03 0.04 0.07 0.06 0.04 0.02 0.04 0.05 0.05 0.03 0.02 0.02 0.02 0.02 0.03 0.03 0.04 0.05 0.06 0.06 0.07 0.07 0.08 0.09 0.10
0.04 0.05 0.05 0.05 0.04 0.05 0.04 0.04 0.03 0.03 0.05 0.05 0.04 0.04 0.04 0.06 0.07 0.05 0.05 0.06 0.05 0.04 0.02 0.02 0.02 0.02 0.02 0.02 0.02 0.02 0.03 0.03 0.04 0.05 0.06 0.08 0.09 0.10
0.03 0.03 0.04 0.04 0.03 0.04 0.04 0.04 0.05 0.05 0.07 0.06 0.06 0.05 0.05 0.05 0.07 0.07 0.07 0.08 0.06 0.04 0.03 0.02 0.02 0.02 0.02 0.02 0.01 0.01 0.02 0.01 0.01 0.01 0.02 0.04 0.06 0.08
0.03 0.03 0.03 0.03 0.03 0.03 0.02 0.03 0.04 0.04 0.04 0.05 0.05 0.05 0.05 0.06 0.06 0.07 0.07 0.08 0.06 0.04 0.03 0.02 0.01 0.01 0.01 0.01 0.01 0.01 0.01 0.01 0.01 0.01 0.01 0.02 0.03 0.05
0.04 0.04 0.04 0.04 0.03 0.02 0.02 0.03 0.03 0.03 0.03 0.04 0.03 0.04 0.04 0.04 0.05 0.05 0.05 0.07 0.06 0.05 0.05 0.03 0.02 0.01 0.01 0.00 0.01 0.01 0.00 0.00 0.00 0.01 0.02 0.03 0.04 0.07
0.05 0.05 0.04 0.04 0.03 0.03 0.03 0.03 0.02 0.01 0.02 0.03 0.03 0.03 0.04 0.03 0.05 0.04 0.05 0.05 0.05 0.05 0.06 0.04 0.03 0.03 0.01 0.01 0.01 0.01 0.01 0.00 0.00 0.01 0.02 0.04 0.06 0.09
0.04 0.04 0.05 0.04 0.04 0.05 0.04 0.04 0.03 0.02 0.02 0.02 0.03 0.03 0.02 0.03 0.05 0.04 0.05 0.05 0.04 0.04 0.04 0.05 0.05 0.03 0.01 0.01 0.02 0.01 0.01 0.01 0.01 0.01 0.01 0.02 0.04 0.05
0.03 0.03 0.04 0.04 0.04 0.04 0.04 0.04 0.04 0.04 0.03 0.03 0.03 0.03 0.03 0.03 0.03 0.04 0.05 0.05 0.04 0.04 0.03 0.04 0.04 0.03 0.02 0.01 0.02 0.02 0.02 0.02 0.02 0.02 0.02 0.03 0.03 0.05
0.02 0.02 0.03 0.03 0.03 0.04 0.04 0.04 0.05 0.06 0.05 0.04 0.04 0.04 0.03 0.03 0.03 0.04 0.05 0.05 0.05 0.04 0.04 0.05 0.05 0.05 0.04 0.02 0.02 0.02 0.03 0.03 0.03 0.03 0.03 0.04 0.05 0.06
0.02 0.02 0.02 0.02 0.03 0.03 0.02 0.03 0.06 0.07 0.08 0.08 0.08 0.06 0.05 0.04 0.03 0.03 0.03 0.04 0.05 0.05 0.05 0.06 0.05 0.05 0.04 0.04 0.04 0.04 0.03 0.03 0.03 0.03 0.03 0.04 0.04 0.04
0.02 0.02 0.01 0.02 0.02 0.02 0.01 0.02 0.03 0.04 0.05 0.06 0.07 0.06 0.05 0.04 0.04 0.03 0.03 0.03 0.04 0.04 0.04 0.06 0.05 0.05 0.05 0.05 0.05 0.05 0.04 0.03 0.03 0.03 0.03 0.02 0.03 0.04
0.01 0.01 0.01 0.01 0.01 0.01 0.01 0.01 0.02 0.02 0.03 0.03 0.04 0.04 0.04 0.04 0.05 0.05 0.05 0.04 0.04 0.03 0.03 0.03 0.04 0.04 0.05 0.04 0.04 0.04 0.03 0.03 0.01 0.01 0.02 0.02 0.03 0.04
0.01 0.01 0.01 0.01 0.01 0.02 0.02 0.02 0.02 0.02 0.02 0.02 0.02 0.03 0.03 0.03 0.04 0.06 0.07 0.08 0.07 0.05 0.03 0.03 0.03 0.04 0.04 0.04 0.04 0.04 0.04 0.03 0.03 0.03 0.03 0.03 0.04 0.04
0.01 0.01 0.01 0.01 0.02 0.02 0.02 0.02 0.02 0.02 0.02 0.02 0.02 0.02 0.03 0.02 0.03 0.04 0.05 0.06 0.06 0.06 0.06 0.05 0.04 0.04 0.05 0.05 0.05 0.05 0.05 0.05 0.05 0.06 0.07 0.05 0.04 0.04
0.03 0.03 0.02 0.02 0.02 0.02 0.02 0.01 0.01 0.01 0.02 0.02 0.02 0.02 0.02 0.02 0.02 0.03 0.03 0.04 0.06 0.05 0.04 0.03 0.05 0.06 0.05 0.05 0.04 0.05 0.05 0.05 0.06 0.07 0.08 0.07 0.05 0.04
0.03 0.02 0.02 0.02 0.02 0.02 0.02 0.01 0.01 0.01 0.02 0.02 0.02 0.02 0.01 0.01 0.02 0.02 0.03 0.04 0.05 0.04 0.03 0.04 0.05 0.06 0.05 0.05 0.05 0.05 0.06 0.06 0.07 0.07 0.07 0.06 0.05 0.04
0.04 0.04 0.04 0.03 0.02 0.02 0.02 0.02 0.01 0.02 0.02 0.02 0.03 0.02 0.02 0.02 0.02 0.02 0.03 0.04 0.04 0.03 0.03 0.03 0.03 0.04 0.05 0.06 0.08 0.08 0.07 0.07 0.06 0.06 0.06 0.05 0.04 0.04
0.04 0.05 0.05 0.05 0.03 0.03 0.02 0.02 0.02 0.01 0.01 0.02 0.02 0.02 0.02 0.02 0.02 0.03 0.03 0.04 0.04 0.03 0.03 0.03 0.03 0.04 0.04 0.05 0.06 0.06 0.07 0.07 0.07 0.07 0.06 0.06 0.05 0.05
0.04 0.04 0.04 0.04 0.04 0.04 0.04 0.03 0.03 0.02 0.02 0.02 0.03 0.03 0.03 0.03 0.03 0.03 0.03 0.03 0.03 0.03 0.03 0.03 0.03 0.02 0.03 0.04 0.04 0.05 0.05 0.05 0.05 0.05 0.05 0.05 0.04 0.04
0.03 0.03 0.03 0.03 0.03 0.03 0.03 0.03 0.03 0.03 0.03 0.03 0.03 0.03 0.03 0.03 0.03 0.03 0.03 0.04 0.04 0.03 0.03 0.03 0.04 0.04 0.04 0.04 0.05 0.05 0.06 0.06 0.06 0.04 0.04 0.05 0.04 0.03
MSLP
1014.89 1015.13 1015.45 1015.84 1016.27 1016.73 1017.18 1017.60 1018.00 1018.36 1018.71 1019.05 1019.39 1019.73 1020.06 1020.37 1020.62 1020.82 1020.92 1020.94 1020.86 1020.71 1020.50 1020.26 1020.00 1019.77 1019.56 1019.40 1019.29 1019.24 1019.23 1019.27 1019.34 1019.42 1019.51 1019.57 1019.57 1019.49
1014.93 1015.12 1015.38 1015.71 1016.09 1016.51 1016.94 1017.37 1017.78 1018.18 1018.56 1018.93 1019.30 1019.65 1019.99 1020.30 1020.57 1020.79 1020.95 1021.05 1021.08 1021.06 1020.99 1020.90 1020.80 1020.69 1020.59 1020.49 1020.40 1020.34 1020.28 1020.24 1020.22 1020.21 1020.19 1020.15 1020.07 1019.91
1015.03 1015.19 1015.41 1015.69 1016.03 1016.41 1016.81 1017.23 1017.66 1018.07 1018.47 1018.86 1019.23 1019.59 1019.92 1020.22 1020.48 1020.71 1020.89 1021.03 1021.14 1021.22 1021.27 1021.32 1021.35 1021.37 1021.37 1021.36 1021.33 1021.28 1021.21 1021.14 1021.06 1020.98 1020.89 1020.79 1020.64 1020.43
1015.20 1015.34 1015.53 1015.77 1016.07 1016.41 1016.80 1017.20 1017.62 1018.04 1018.45 1018.84 1019.21 1019.55 1019.86 1020.14 1020.38 1020.58 1020.76 1020.92 1021.07 1021.21 1021.35 1021.50 1021.64 1021.77 1021.88 1021.95 1021.99 1021.99 1021.95 1021.87 1021.78 1021.67 1021.55 1021.40 1021.23 1021.00
1015.41 1015.54 1015.72 1015.93 1016.20 1016.51 1016.87 1017.26 1017.66 1018.07 1018.47 1018.86 1019.21 1019.53 1019.80 1020.04 1020.25 1020.42 1020.58 1020.73 1020.89 1021.06 1021.25 1021.47 1021.69 1021.90 1022.10 1022.26 1022.37 1022.43 1022.44 1022.40 1022.32 1022.22 1022.09 1021.95 1021.78 1021.56
1015.62 1015.77 1015.93 1016.12 1016.36 1016.65 1016.98 1017.35 1017.73 1018.12 1018.50 1018.86 1019.19 1019.48 1019.72 1019.91 1020.08 1020.21 1020.34 1020.47 1020.62 1020.80 1021.01 1021.26 1021.53 1021.81 1022.07 1022.30 1022.49 1022.61 1022.68 1022.70 1022.66 1022.60 1022.51 1022.39 1022.25 1022.08
1015.82 1015.96 1016.11 1016.29 1016.51 1016.78 1017.08 1017.42 1017.77 1018.13 1018.49 1018.82 1019.11 1019.36 1019.56 1019.72 1019.85 1019.95 1020.05 1020.15 1020.29 1020.46 1020.67 1020.94 1021.23 1021.54 1021.85 1022.14 1022.39 1022.58 1022.71 1022.79 1022.83 1022.82 1022.78 1022.71 1022.63 1022.52
1015.94 1016.08 1016.22 1016.39 1016.60 1016.84 1017.12 1017.42 1017.75 1018.07 1018.39 1018.68 1018.93 1019.15 1019.32 1019.45 1019.55 1019.63 1019.70 1019.79 1019.91 1020.08 1020.29 1020.55 1020.85 1021.18 1021.51 1021.84 1022.14 1022.39 1022.59 1022.74 1022.84 1022.90 1022.93 1022.93 1022.91 1022.87
1015.98 1016.10 1016.24 1016.40 1016.59 1016.82 1017.07 1017.35 1017.64 1017.93 1018.20 1018.45 1018.67 1018.85 1018.99 1019.10 1019.19 1019.26 1019.33 1019.42 1019.53 1019.69 1019.90 1020.15 1020.45 1020.78 1021.13 1021.48 1021.81 1022.11 1022.37 1022.58 1022.75 1022.88 1022.98 1023.05 1023.10 1023.13
1015.91 1016.03 1016.16 1016.32 1016.51 1016.72 1016.96 1017.22 1017.48 1017.73 1017.96 1018.17 1018.35 1018.50 1018.62 1018.71 1018.79 1018.87 1018.95 1019.04 1019.17 1019.33 1019.54 1019.79 1020.08 1020.41 1020.75 1021.11 1021.46 1021.79 1022.09 1022.36 1022.59 1022.79 1022.95 1023.09 1023.19 1023.29
1015.74 1015.86 1016.01 1016.17 1016.37 1016.59 1016.82 1017.06 1017.29 1017.51 1017.70 1017.87 1018.01 1018.13 1018.23 1018.32 1018.40 1018.48 1018.58 1018.69 1018.83 1019.00 1019.21 1019.46 1019.74 1020.06 1020.40 1020.75 1021.10 1021.45 1021.78 1022.09 1022.37 1022.61 1022.83 1023.02 1023.18 1023.31
1015.51 1015.65 1015.81 1016.00 1016.22 1016.45 1016.69 1016.92 1017.13 1017.31 1017.47 1017.60 1017.71 1017.79 1017.87 1017.95 1018.03 1018.13 1018.24 1018.37 1018.53 1018.71 1018.92 1019.16 1019.43 1019.73 1020.05 1020.38 1020.73 1021.08 1021.42 1021.75 1022.06 1022.34 1022.59 1022.82 1023.02 1023.19
1015.25 1015.42 1015.62 1015.84 1016.09 1016.34 1016.58 1016.80 1016.99 1017.15 1017.27 1017.36 1017.43 1017.48 1017.54 1017.60 1017.68 1017.78 1017.91 1018.06 1018.22 1018.41 1018.62 1018.86 1019.11 1019.38 1019.67 1019.98 1020.30 1020.64 1020.98 1021.31 1021.63 1021.93 1022.21 1022.46 1022.68 1022.88
1014.97 1015.19 1015.43 1015.69 1015.96 1016.23 1016.48 1016.69 1016.86 1016.99 1017.07 1017.12 1017.15 1017.17 1017.20 1017.25 1017.33 1017.43 1017.56 1017.72 1017.89 1018.08 1018.29 1018.51 1018.73 1018.97 1019.23 1019.51 1019.80 1020.11 1020.43 1020.75 1021.07 1021.38 1021.67 1021.93 1022.17 1022.38
1014.69 1014.96 1015.24 1015.53 1015.82 1016.09 1016.33 1016.53 1016.67 1016.76 1016.80 1016.82 1016.81 1016.80 1016.81 1016.85 1016.92 1017.02 1017.15 1017.31 1017.49 1017.68 1017.88 1018.07 1018.28 1018.49 1018.71 1018.95 1019.20 1019.48 1019.77 1020.08 1020.39 1020.69 1020.98 1021.24 1021.48 1021.70
1014.39 1014.69 1015.00 1015.31 1015.60 1015.85 1016.07 1016.23 1016.33 1016.38 1016.39 1016.37 1016.33 1016.30 1016.30 1016.33 1016.40 1016.50 1016.64 1016.81 1016.99 1017.18 1017.37 1017.55 1017.73 1017.91 1018.10 1018.31 1018.53 1018.77 1019.04 1019.32 1019.61 1019.90 1020.18 1020.44 1020.68 1020.90
1014.04 1014.36 1014.67 1014.96 1015.22 1015.44 1015.61 1015.72 1015.78 1015.78 1015.76 1015.71 1015.66 1015.62 1015.62 1015.65 1015.74 1015.86 1016.02 1016.20 1016.39 1016.59 1016.77 1016.95 1017.12 1017.28 1017.45 1017.62 1017.82 1018.03 1018.27 1018.53 1018.80 1019.08 1019.35 1019.60 1019.84 1020.07
1013.60 1013.91 1014.19 1014.44 1014.65 1014.80 1014.91 1014.96 1014.96 1014.93 1014.87 1014.81 1014.76 1014.74 1014.75 1014.82 1014.93 1015.08 1015.27 1015.48 1015.70 1015.91 1016.12 1016.30 1016.47 1016.63 1016.79 1016.95 1017.14 1017.34 1017.56 1017.80 1018.06 1018.32 1018.58 1018.83 1019.06 1019.28
1013.04 1013.31 1013.54 1013.72 1013.85 1013.93 1013.96 1013.95 1013.91 1013.84 1013.77 1013.71 1013.68 1013.69 1013.74 1013.85 1014.01 1014.22 1014.45 1014.71 1014.96 1015.21 1015.44 1015.65 1015.84 1016.02 1016.18 1016.35 1016.53 1016.73 1016.95 1017.18 1017.43 1017.68 1017.93 1018.17 1018.40 1018.62
1012.32 1012.53 1012.69 1012.79 1012.84 1012.84 1012.81 1012.75 1012.67 1012.59 1012.52 1012.48 1012.49 1012.54 1012.66 1012.83 1013.05 1013.31 1013.60 1013.91 1014.22 1014.51 1014.78 1015.03 1015.26 1015.46 1015.66 1015.84 1016.04 1016.25 1016.47 1016.70 1016.95 1017.19 1017.43 1017.67 1017.89 1018.10
1011.45 1011.59 1011.66 1011.69 1011.67 1011.61 1011.53 1011.44 1011.35 1011.27 1011.23 1011.23 1011.28 1011.40 1011.57 1011.80 1012.09 1012.42 1012.77 1013.13 1013.49 1013.84 1014.16 1014.46 1014.72 1014.97 1015.20 1015.42 1015.64 1015.86 1016.10 1016.34 1016.58 1016.82 1017.06 1017.29 1017.50 1017.70
1010.43 1010.50 1010.51 1010.48 1010.41 1010.32 1010.22 1010.13 1010.05 1010.00 1010.00 1010.05 1010.15 1010.32 1010.56 1010.85 1011.19 1011.57 1011.97 1012.39 1012.80 1013.19 1013.56 1013.90 1014.22 1014.51 1014.77 1015.03 1015.28 1015.52 1015.77 1016.02 1016.26 1016.50 1016.73 1016.94 1017.14 1017.33
1009.28 1009.30 1009.27 1009.22 1009.14 1009.05 1008.97 1008.90 1008.86 1008.86 1008.90 1009.00 1009.16 1009.38 1009.66 1009.99 1010.37 1010.78 1011.22 1011.67 1012.11 1012.54 1012.95 1013.33 1013.69 1014.02 1014.32 1014.61 1014.88 1015.14 1015.40 1015.65 1015.89 1016.13 1016.34 1016.55 1016.73 1016.91
Thickness
5747 5745 5743 5741 5740 5738 5735 5730 5721 5712 5709 5711 5711 5711 5709 5705 5702 5700 5697 5694 5692 5690 5688 5686 5685 5684 5683 5682 5681 5680 5679 5677 5676 5675 5675 5674 5673 5673
5745 5743 5740 5739 5738 5736 5733 5730 5726 5719 5711 5710 5709 5709 5706 5702 5699 5696 5694 5691 5688 5685 5683 5681 5679 5678 5677 5676 5675 5673 5672 5671 5669 5668 5668 5667 5666 5666
5742 5740 5737 5736 5734 5733 5730 5727 5724 5719 5709 5707 5707 5706 5702 5699 5695 5693 5690 5687 5684 5681 5678 5676 5674 5672 5671 5669 5668 5667 5665 5664 5662 5661 5660 5660 5659 5659
5738 5736 5734 5733 5730 5728 5726 5722 5720 5716 5709 5702 5701 5699 5697 5695 5691 5689 5687 5684 5680 5677 5674 5671 5669 5666 5665 5663 5661 5660 5658 5656 5655 5654 5654 5653 5652 5651
5735 5732 5729 5727 5725 5723 5721 5718 5715 5713 5708 5701 5697 5695 5692 5691 5687 5685 5682 5679 5677 5673 5669 5666 5664 5661 5659 5657 5655 5653 5651 5650 5648 5647 5646 5646 5645 5644
5731 5728 5725 5723 5720 5718 5716 5713 5711 5707 5704 5698 5694 5690 5687 5685 5683 5679 5675 5674 5671 5669 5666 5662 5659 5656 5654 5652 5650 5648 5646 5644 5642 5640 5639 5638 5638 5637
5725 5724 5721 5718 5716 5714 5712 5708 5706 5702 5698 5694 5689 5685 5682 5679 5676 5675 5671 5669 5666 5664 5661 5658 5654 5651 5648 5646 5644 5641 5640 5638 5636 5634 5633 5632 5631 5630
5720 5718 5716 5714 5711 5708 5705 5703 5700 5696 5692 5688 5683 5680 5677 5675 5673 5671 5667 5663 5658 5660 5657 5654 5652 5648 5645 5642 5639 5637 5634 5632 5630 5628 5627 5625 5624 5624
5716 5714 5713 5710 5706 5703 5700 5697 5694 5691 5688 5684 5679 5675 5673 5672 5669 5665 5663 5659 5656 5656 5652 5649 5648 5645 5642 5639 5636 5633 5630 5627 5625 5623 5621 5619 5618 5617
5712 5709 5706 5702 5700 5696 5694 5692 5688 5686 5684 5680 5676 5673 5671 5669 5666 5663 5659 5656 5654 5652 5649 5643 5642 5640 5638 5634 5631 5629 5626 5623 5620 5618 5616 5614 5612 5611
5706 5703 5700 5696 5692 5689 5687 5684 5681 5679 5678 5675 5672 5669 5666 5663 5660 5657 5653 5648 5644 5643 5643 5639 5637 5634 5632 5628 5626 5623 5621 5618 5615 5613 5611 5609 5607 5605
5699 5696 5692 5689 5685 5683 5680 5677 5674 5672 5670 5668 5665 5662 5660 5657 5655 5652 5649 5644 5640 5637 5638 5635 5632 5629 5625 5623 5620 5618 5615 5613 5610 5608 5606 5604 5601 5598
5693 5690 5685 5682 5679 5676 5673 5670 5667 5665 5663 5661 5659 5656 5654 5651 5649 5646 5644 5640 5636 5633 5634 5630 5627 5624 5620 5617 5615 5613 5611 5609 5605 5602 5600 5598 5596 5593
5687 5684 5680 5676 5673 5670 5667 5664 5661 5658 5657 5655 5652 5650 5647 5645 5643 5641 5638 5636 5634 5631 5629 5626 5622 5619 5616 5612 5610 5609 5606 5604 5602 5598 5596 5593 5590 5587
5680 5676 5673 5669 5666 5664 5661 5658 5655 5652 5651 5648 5646 5644 5643 5641 5639 5636 5634 5631 5628 5626 5624 5621 5619 5616 5612 5608 5606 5604 5601 5599 5598 5595 5592 5589 5586 5583
5671 5668 5665 5663 5660 5657 5655 5653 5650 5648 5645 5643 5641 5640 5638 5635 5632 5630 5627 5624 5621 5619 5619 5617 5614 5611 5607 5605 5603 5600 5597 5594 5592 5590 5587 5585 5582 5580
5663 5661 5659 5657 5654 5652 5651 5649 5646 5643 5640 5638 5635 5633 5631 5628 5626 5624 5621 5619 5615 5612 5611 5611 5609 5606 5604 5601 5597 5596 5593 5590 5588 5585 5581 5578 5577 5575
5657 5656 5654 5652 5650 5648 5645 5643 5640 5637 5635 5632 5630 5627 5624 5621 5619 5617 5615 5612 5610 5608 5606 5605 5602 5599 5596 5595 5592 5590 5587 5584 5582 5579 5576 5571 5569 5568
5652 5651 5649 5647 5646 5644 5641 5638 5635 5633 5630 5627 5624 5621 5619 5616 5614 5611 5609 5606 5604 5603 5602 5600 5597 5593 5588 5586 5587 5585 5581 5579 5576 5573 5570 5567 5564 5563
5647 5646 5644 5642 5641 5639 5636 5633 5630 5627 5624 5621 5618 5615 5613 5610 5608 5606 5603 5601 5598 5597 5595 5594 5592 5589 5584 5582 5581 5579 5576 5573 5569 5566 5564 5562 5558 5556
5642 5640 5639 5636 5635 5633 5631 5628 5625 5622 5619 5615 5612 5610 5608 5605 5602 5600 5598 5595 5592 5590 5588 5587 5587 5585 5583 5580 5576 5573 5570 5567 5564 5561 5559 5556 5552 5550
5637 5636 5634 5631 5629 5626 5624 5621 5618 5615 5612 5610 5607 5605 5602 5600 5597 5595 5592 5589 5586 5585 5583 5582 5581 5579 5576 5573 5570 5568 5565 5561 5558 5555 5553 5550 5547 5544
5631 5630 5628 5626 5623 5620 5617 5614 5612 5609 5606 5604 5602 5599 5596 5593 5591 5589 5586 5584 5581 5578 5576 5575 5573 5572 5570 5567 5565 5563 5561 5557 5553 5549 5546 5544 5542 5540